Find Starlink 30791

NORAD ID: 58177 Int'l Des: 2023-167 Owner: SPXS Country: US Constellation: starlink operational
LEOCIRCULAR

リアルタイム位置

3D地球を読み込み中...

Starlink 30791について

説明を読み込み中...

次回通過

Passes for default location (London). Set your location on the main map for personalized predictions.

高度履歴

Loading altitude history...

軌道要素

1 58177U 23167C 26125.22142620 .00010985 00000-0 40760-3 0 9995
2 58177 43.0049 183.9018 0002171 286.8929 73.1685 15.27621737139638
Epoch: May 5, 2026 • Age: 5 hours

現在のステータス

高度 483.2 km
速度 7.63 km/s
衛星直下点 24.48°N, 164.26°W
打ち上げ日 Oct 30, 2023
運用期間 2.5 years
タイプ internet

技術仕様

分類 Payload
質量 730.00 kg
乾燥質量 700.00 kg
総質量 730.00 kg
長さ 0.30 m
直径 4.10 m
スパン 29.00 m
形状 Box + pan
製造者 SPXS
バスタイプ Starlink V2M
フェーズステータス In Orbit
所有者/国 SPXS/US

Most Searched